Flag for U.S.A. Weather past 2 weeks in Davenport, Iowa, U.S.A.

Now
24 °F

Snow. Ice fog.


Feels Like: 8 °F
Forecast: 12 / 33 °F
Wind: 24 mph from Northeast

Location: Davenport Municipal Airport

Current Time: Feb 1, 2015 at 1:19:47 PM

Latest Report: Feb 1, 2015 at 12:52 PM


Visibility: 0 mi

Pressure: 29.81 "Hg

Humidity: 84%

Dew point: 20 °F

Location of DavenportLocation

Historic Weather in Davenport — Graph

°F

Davenport temperature yesterday

Maximum temperature yesterday: 36 °F (at 12:52 PM)
Minimum temperature yesterday: 25 °F (at 2:52 AM)
Average temperature yesterday: 31 °F

Past Weeks' High & Low Weather Summary

 TemperatureHumidityPressure
High46 °F (Jan 24, 2:52 PM)92% (Jan 19, 3:52 AM)30.60 "Hg (Jan 19, 3:52 AM)
Low10 °F (Jan 26, 2:52 AM)55% (Jan 30, 11:52 AM)29.60 "Hg (Jan 25, 12:52 AM)
Average31 °F80%30.05 "Hg
* Reported Jan 17 11:52 AM — Feb 1 11:52 AM, Davenport, Weather by CustomWeather, © 2014

Note: Actual official high and low records may vary slightly from our data, if they occured in-between our weather recording intervals... More about our weather records

Advertising

Davenport weather history for previous 24 hours

 ConditionsComfort  
Time TempWeatherWind HumidityBarometerVisibility
11:52 AM
Feb 1
24 °FSnow. Ice fog.25 mph88%29.83 "Hg0 mi
10:52 AM26 °FLight snow. Ice fog.22 mph88%29.84 "Hg1 mi
9:52 AM27 °FLight snow. Ice fog.21 mph89%29.84 "Hg1 mi
8:52 AM29 °FSnow. Ice fog.22 mph89%29.85 "Hg1 mi
8:02 AM30 °FSnow. Ice fog.20 mph89%29.85 "Hg0 mi
7:52 AM30 °FSnow. Ice fog.20 mph92%29.87 "Hg1 mi
6:52 AM31 °FLight snow. Ice fog.22 mph92%29.88 "Hg1 mi
5:52 AM32 °FLight snow. Ice fog.17 mph92%29.88 "Hg1 mi
4:52 AM32 °FSnow. Fog.14 mph92%29.92 "Hg1 mi
3:52 AM32 °FLight snow. Ice fog.12 mph92%29.94 "Hg1 mi
2:52 AM32 °FSnow. Fog.12 mph92%29.97 "Hg1 mi
1:52 AM32 °FLight snow. Ice fog.10 mph92%30.00 "Hg1 mi
12:52 AM32 °FLight snow. Ice fog.10 mph92%30.03 "Hg1 mi
11:52 PM
Jan 31
32 °FLight snow. Ice fog.8 mph92%30.07 "Hg1 mi
10:52 PM32 °FLight snow. Ice fog.8 mph92%30.10 "Hg2 mi
9:48 PM32 °FLight snow. Ice fog.5 mph92%30.11 "Hg3 mi
9:03 PM32 °FLight snow. Ice fog.7 mph92%30.10 "Hg1 mi
9:01 PM32 °FLight snow. Ice fog.7 mph92%30.10 "Hg1 mi
7:59 PM32 °FLight snow. Ice fog.6 mph92%30.12 "Hg1 mi
6:52 PM32 °FLight snow. Ice fog.5 mph92%30.15 "Hg2 mi
5:52 PM33 °FLight rain. Fog.6 mph92%30.17 "Hg4 mi
5:04 PM34 °FLight rain. Fog.7 mph92%30.15 "Hg3 mi
4:52 PM34 °FLight rain. Fog.6 mph92%30.18 "Hg3 mi
3:52 PM35 °FLight rain. Fog.7 mph88%30.18 "Hg2 mi
3:04 PM35 °FFog.6 mph88%30.15 "Hg2 mi
2:52 PM35 °FFog.5 mph88%30.18 "Hg2 mi
1:52 PM34 °FFog.8 mph88%30.20 "Hg2 mi
Weather by CustomWeather, © 2014

See weather overviewHow to use our weather pages